IRIDIUM 33 DEB, 37562

Orbit data source: Space-Track

IRIDIUM 33 DEB, 37562 is space debris in LEO originally from a launch on Sun, 14 Sep 1997 UTC launched from the Tyuratam Missile And Space Complex (TTMTR). The debris from Iridium 33, an American commercial communications satellite, has been tracked extensively since its accidental collision with the defunct Russian satellite Cosmos 2251 in 2009. This event, occurring at high speed in low Earth orbit (LEO), generated thousands of pieces of space debris, significantly increasing the risk of further collisions. The Iridium 33 debris cloud has impacted space traffic management and orbital debris mitigation strategies, making it a subject of ongoing study in space situational awareness.

Loading next visibility...
Identifier
37562, 1997-051XX
Orbit
LEO
Country
Flag of USUS
Related business
Manufacturer
Unknown
Mission
Spacecraft
Bus & Motor
Unknown
Mass
Unknown
Launch date (UTC)
1997-09-14 (28 years ago)
Launch vehicle
Unknown
Launch site
Tyuratam Missile And Space Complex (TTMTR)
Object type
Payload
Rocket body
Debris
Shape & HBR
Unknown shape, 0.1 m
Radar Cross Section
Small (<0.1 m²)

Expand to show TLE details & history
Last TLE update: 14 hours ago

TLE from 14 hours ago
0 IRIDIUM 33 DEB
1 37562U 97051XX  25303.10893396  .00008088  00000-0  18357-2 0  9997
2 37562  86.3735  62.6113 0023626 252.0535 286.7540 14.55768645856931
Epoch: 2025-10-30T02:36Z
TLE epoch observation values (Epoch: 2025-10-30T02:36:51.894Z)
Latitude
1.33688°
Longitude
164.63834°
Altitude
704.997 km
Speed
7.506 km/s
True Right ascension
16h 10m 06s
True Declination
1° 19' 44"
Sunlit
Object was in daylight at epoch
Visualization orbit readout
Latitude
Unknown
Longitude
Unknown
Altitude
Unknown
Speed
Unknown
Apparent Right ascension
Unknown
Apparent Declination
Unknown
Sunlit
N/A
Visualization observer readout
Local Sidereal Time
11:53:29
Azimuth
Unknown
Elevation
Unknown
Doppler factor
Unknown
Orbital elements
Apogee altitude
720.536 km
Perigee altitude
687.072 km
Semi-major axis
7,081.941 km
Eccentricity
0.00236
Inclination
86.3735°
RAAN
62.6113°
Arg. of periapsis
252.0535°
True anomaly
286.49454°
Mean anomaly
286.754°
Eccentric anomaly
286.62429°
Mean motion
3.64179 °/min
Orbital period
98.85 mins
BSTAR
0.0018357
Loading maneuver chart data...
Computing Atmospheric mass density...

Documentation

Showing up to 5 results
|